Location: McFarlands Corners
(41.4117°N, 81.3382°W)
Time: 00:29:02
(UTC+00:00)

Hubble Space Telescope - Visible Passes

Search period start: 25 January 2026 00:00
Search period end: 04 February 2026 00:00
Orbit: 478 x 481 km, 28.5° (Epoch: 24 January)

Date Brightness Start Highest point End Pass type
(mag) Time Alt. Az. Time Alt. Az. Time Alt. Az.
26 Jan 3.1 00:17:50 10° S 00:18:42 11° S 00:19:22 10° SSE visible
26 Jan 3.2 23:47:55 10° S 23:48:47 11° S 23:49:39 10° SSE visible
27 Jan 3.2 23:17:57 10° S 23:18:50 11° S 23:19:43 10° SSE visible
28 Jan 3.4 00:57:07 10° SSW 00:57:10 10° SSW 00:57:10 10° SSW visible
29 Jan 3.2 00:27:10 10° SSW 00:27:55 10° S 00:28:39 10° S visible
29 Jan 3.3 23:57:12 10° SSW 23:57:55 10° S 23:58:39 10° S visible
30 Jan 3.4 23:27:12 10° SSW 23:27:54 10° S 23:28:37 10° S visible
